Maxton, NC

6:14 PM EDT on July 29, 2016 (GMT -0400)
Laurinburg-Maxton

Weather History for KMEB - August, 2014

Change the Weather History Date:

Tuesday, August 26, 2014

  Actual Average (KLBT) Record (KLBT)
Temperature  
Mean Temperature 74 °F 78 °F  
Max Temperature 86 °F 87 °F 92 °F (2010)
Min Temperature 63 °F 68 °F 61 °F (2012)
Degree Days  
Heating Degree Days 0 0  
Month to date heating degree days 0  
Since 1 June heating degree days 0  
Since 1 July heating degree days 0  
Cooling Degree Days 8 13  
Month to date cooling degree days 372  
Year to date cooling degree days 1510  
Since 1 June cooling degree days 1260  
Growing Degree Days 24 (Base 50)    
Moisture  
Dew Point 61 °F    
Average Humidity 65    
Maximum Humidity 90    
Minimum Humidity 40    
Precipitation  
Precipitation 0.00 in 0.18 in 3.59 in (2007)
Month to date precipitation 4.72  
Year to date precipitation 29.61  
Sea Level Pressure  
Sea Level Pressure 30.09 in    
Wind  
Wind Speed 9 mph (NE)    
Max Wind Speed 15 mph    
Max Gust Speed 20 mph    
Visibility 10 miles    
Events      
T = Trace of Precipitation, MM = Missing Value Source: NWS Daily Summary

Daily Weather History Graph

Daily Weather History Graph

Search for Another Location

Airport or City:

Trip Planner

Search our weather history database for the weather conditions in past years. The results will help you decide how hot, cold, wet, or windy it might be!

Date:

Astronomy

Aug. 26, 2014 Rise Set
Actual Time 6:45 AM EDT 7:51 PM EDT
Civil Twilight 6:19 AM EDT 8:17 PM EDT
Nautical Twilight 5:48 AM EDT 8:48 PM EDT
Astronomical Twilight 5:16 AM EDT 9:20 PM EDT
Moon 7:40 AM EDT (8/26) 8:17 PM EDT (8/26)
Length of Visible Light 13h 58m
Length of Day
13h 05m
New Moon, 1% of the Moon is Illuminated
Aug 26
New Moon
Sep 2
First Quarter
Sep 8
Full
Sep 15
Last Quarter
Sep 24
New

Hourly Weather History & Observations

Time (EDT) Temp. Heat Index Dew Point Humidity Pressure Visibility Wind Dir Wind Speed Gust Speed Precip Events Conditions
12:52 AM 73.0 °F - 63.0 °F 71% 30.11 in 10.0 mi ENE 10.4 mph - N/A   Overcast
1:52 AM 71.1 °F - 61.0 °F 70% 30.10 in 10.0 mi NE 9.2 mph - N/A   Overcast
2:52 AM 68.0 °F - 61.0 °F 78% 30.10 in 10.0 mi NE 8.1 mph - N/A   Clear
3:52 AM 66.0 °F - 60.1 °F 81% 30.09 in 10.0 mi NNE 5.8 mph - N/A   Clear
5:52 AM 64.0 °F - 60.1 °F 87% 30.09 in 10.0 mi NNE 5.8 mph - N/A   Clear
6:52 AM 63.0 °F - 60.1 °F 90% 30.11 in 10.0 mi NNE 6.9 mph - N/A   Clear
7:52 AM 66.0 °F - 61.0 °F 84% 30.13 in 9.0 mi NNE 9.2 mph - N/A   Clear
8:52 AM 71.1 °F - 61.0 °F 70% 30.12 in 10.0 mi NE 12.7 mph - N/A   Clear
9:52 AM 73.9 °F - 61.0 °F 64% 30.12 in 10.0 mi NE 15.0 mph - N/A   Clear
11:52 AM 81.0 °F 81.6 °F 60.1 °F 49% 30.13 in 10.0 mi North 13.8 mph - N/A   Clear
12:52 PM 81.0 °F 81.6 °F 60.1 °F 49% 30.12 in 8.0 mi NNE 10.4 mph 16.1 mph N/A   Clear
1:52 PM 82.9 °F 83.2 °F 60.1 °F 46% 30.11 in 10.0 mi NNE 15.0 mph 19.6 mph N/A   Clear
2:52 PM 84.0 °F 83.3 °F 57.0 °F 40% 30.08 in 10.0 mi ENE 11.5 mph - N/A   Clear
3:52 PM 84.9 °F 84.2 °F 57.9 °F 40% 30.07 in 10.0 mi NE 12.7 mph 17.3 mph N/A   Clear
4:52 PM 84.9 °F 84.4 °F 59.0 °F 41% 30.05 in 10.0 mi NNE 13.8 mph - N/A   Clear
5:52 PM 84.0 °F 83.5 °F 57.9 °F 41% 30.06 in 10.0 mi NE 10.4 mph - N/A   Clear
6:52 PM 82.0 °F 82.4 °F 60.1 °F 47% 30.06 in 10.0 mi ENE 9.2 mph - N/A   Partly Cloudy
7:52 PM 77.0 °F - 62.1 °F 60% 30.06 in 10.0 mi ENE 5.8 mph - N/A   Partly Cloudy
8:52 PM 73.0 °F - 63.0 °F 71% 30.07 in 10.0 mi NE 4.6 mph - N/A   Clear
9:52 PM 70.0 °F - 62.1 °F 76% 30.08 in 10.0 mi NNE 5.8 mph - N/A   Clear
10:52 PM 68.0 °F - 62.1 °F 81% 30.08 in 10.0 mi Calm Calm - N/A   Clear
11:52 PM 66.9 °F - 62.1 °F 84% 30.07 in 9.0 mi NNE 3.5 mph - N/A   Clear